DMSP 5D-2 F13 DEB, 40580

Orbit data source: Space-Track

DMSP 5D-2 F13 DEB, 40580 is space debris in SSO originally from a launch on Fri, 24 Mar 1995 UTC launched from the Air Force Western Test Range (AFWTR). Debris objects in space refer to the collection of defunct objects orbiting the Earth. Examples of debris include non-operational satellites, rocket bodies, and fragments generated from explosions, collisions, or faulty payload assembly.

Loading next visibility...
Identifier
40580, 1995-015EP
Orbit
SSO
Country
Flag of USUS
Related business
Manufacturer
Unknown
Mission
Spacecraft
Bus & Motor
Unknown
Mass
Unknown
Launch date (UTC)
1995-03-24 (31 years ago)
Launch vehicle
Unknown
Launch site
Air Force Western Test Range (AFWTR)
Object type
Payload
Rocket body
Debris
Shape & HBR
Unknown shape, 0.1 m
Radar Cross Section
Small (<0.1 m²)

Expand to show TLE details & history
Last TLE update: 2 days ago

TLE from 2 days ago
0 DMSP 5D-2 F13 DEB
1 40580U 95015EP  26069.87744009  .00004752  00000-0  17382-2 0  9990
2 40580  98.8325 102.4087 0014175 205.1245 154.9250 14.33340121565782
Epoch: 2026-03-10T21:03Z
TLE epoch observation values (Epoch: 2026-03-10T21:03:30.823Z)
Latitude
-0.00007°
Longitude
-22.01945°
Altitude
792.712 km
Speed
7.453 km/s
True Right ascension
06h 49m 38s
True Declination
0° 00' 00"
Sunlit
Object was in daylight at epoch
Visualization orbit readout
Latitude
Unknown
Longitude
Unknown
Altitude
Unknown
Speed
Unknown
Apparent Right ascension
Unknown
Apparent Declination
Unknown
Sunlit
N/A
Visualization observer readout
Local Sidereal Time
07:15:31
Azimuth
Unknown
Elevation
Unknown
Doppler factor
Unknown
Orbital elements
Apogee altitude
787.878 km
Perigee altitude
767.591 km
Semi-major axis
7,155.872 km
Eccentricity
0.00142
Inclination
98.8325°
RAAN
102.4087°
Arg. of periapsis
205.1245°
True anomaly
154.99373°
Mean anomaly
154.925°
Eccentric anomaly
154.95938°
Mean motion
3.5855 °/min
Orbital period
100.4 mins
BSTAR
0.0017382
Loading maneuver chart data...
Computing Atmospheric mass density...
Loading historical data...
Loading historical data...
Loading historical data...
Loading historical data...
Loading historical data...
Loading historical data...
Loading historical data...

Documentation

Showing up to 5 results
|